Maxton, NC

8:12 PM EST on February 27, 2017 (GMT -0500)
Laurinburg-Maxton

Weather History for KMEB - January, 2013

Change the Weather History Date:

Sunday, January 6, 2013

  Actual Average (KHFF) Record (KHFF)
Temperature  
Mean Temperature 45 °F -  
Max Temperature 48 °F 55 °F 71 °F (2005)
Min Temperature 42 °F 32 °F 15 °F (1999)
Degree Days  
Heating Degree Days 20    
Moisture  
Dew Point 42 °F    
Average Humidity 90    
Maximum Humidity 100    
Minimum Humidity 62    
Precipitation  
Precipitation 0.05 in - - ()
Sea Level Pressure  
Sea Level Pressure 30.16 in    
Wind  
Wind Speed 3 mph (West)    
Max Wind Speed 43 mph    
Max Gust Speed 116 mph    
Visibility 7 miles    
Events Fog , Rain    
Averages and records for this station are not official NWS values.
T = Trace of Precipitation, MM = Missing Value Source: NWS Daily Summary

Daily Weather History Graph

Daily Weather History Graph

Search for Another Location

Airport or City:

Trip Planner

Search our weather history database for the weather conditions in past years. The results will help you decide how hot, cold, wet, or windy it might be!

Date:

Astronomy

Jan. 06, 2013 Rise Set
Actual Time 7:25 AM EST 5:21 PM EST
Civil Twilight 6:57 AM EST 5:49 PM EST
Nautical Twilight 6:26 AM EST 6:20 PM EST
Astronomical Twilight 5:55 AM EST 6:51 PM EST
Moon 1:43 AM EST (1/6) 12:43 PM EST (1/6)
Length of Visible Light 10h 51m
Length of Day
9h 56m
Waning Crescent, 33% of the Moon is Illuminated
Jan 6
Waning Crescent
Jan 11
New
Jan 18
First Quarter
Jan 26
Full
Feb 3
Last Quarter

Hourly Weather History & Observations

Time (EST) Temp. Windchill Dew Point Humidity Pressure Visibility Wind Dir Wind Speed Gust Speed Precip Events Conditions
12:52 AM 42.1 °F - 33.1 °F 70% 30.25 in 10.0 mi Calm Calm - N/A   Mostly Cloudy
1:52 AM 43.0 °F 40.3 °F 30.9 °F 62% 30.25 in 10.0 mi SSW 4.6 mph - N/A   Overcast
2:52 AM 43.0 °F - 32.0 °F 65% 30.25 in 10.0 mi Calm Calm - N/A   Overcast
3:52 AM 44.1 °F - 34.0 °F 68% 30.23 in 10.0 mi Calm Calm - N/A   Overcast
4:52 AM 43.0 °F - 37.0 °F 80% 30.21 in 10.0 mi Calm Calm - 0.00 in   Overcast
5:52 AM 43.0 °F - 36.0 °F 76% 30.20 in 10.0 mi Calm Calm - N/A   Overcast
6:52 AM 43.0 °F 41.3 °F 37.0 °F 80% 30.20 in 10.0 mi SSW 3.5 mph - N/A   Overcast
7:52 AM 43.0 °F 41.3 °F 37.9 °F 82% 30.22 in 10.0 mi SW 3.5 mph - N/A   Overcast
8:52 AM 44.1 °F 42.5 °F 39.9 °F 85% 30.23 in 9.0 mi WSW 3.5 mph - 0.00 in Rain Light Rain
9:52 AM 45.0 °F 43.5 °F 41.0 °F 86% 30.24 in 7.0 mi SW 3.5 mph - 0.02 in Rain Light Rain
10:52 AM 45.0 °F 41.2 °F 39.9 °F 82% 30.22 in 6.0 mi SW 6.9 mph - 0.01 in Rain Light Rain
11:28 AM 44.6 °F 41.4 °F 39.2 °F 81% 30.19 in 10.0 mi WSW 5.8 mph - 0.00 in   Overcast
11:40 AM 44.6 °F 40.7 °F 39.2 °F 81% 30.19 in 10.0 mi WSW 6.9 mph - 0.00 in   Overcast
11:52 AM 45.0 °F 42.6 °F 41.0 °F 86% 30.18 in 10.0 mi WSW 4.6 mph - 0.00 in   Overcast
12:12 PM 46.4 °F 42.9 °F 41.0 °F 81% 30.16 in 10.0 mi SW 6.9 mph - N/A   Overcast
12:52 PM 46.0 °F 43.1 °F 43.0 °F 89% 30.14 in 8.0 mi SW 5.8 mph - 0.01 in Rain Light Rain
1:47 PM 44.6 °F - 42.8 °F 93% 30.13 in 7.0 mi Calm Calm - 0.00 in Rain Light Rain
1:52 PM 45.0 °F - 44.1 °F 97% 30.12 in 7.0 mi Calm Calm - 0.00 in   Overcast
2:42 PM 46.4 °F 35.6 °F 44.6 °F 93% 30.10 in 8.0 mi NW 42.6 mph 116.2 mph 0.00 in   Squalls
2:52 PM 46.0 °F 38.5 °F 44.1 °F 93% 30.10 in 7.0 mi West 19.6 mph 116.2 mph 0.00 in   Overcast
3:19 PM 46.4 °F - 44.6 °F 93% 30.11 in 7.0 mi Calm Calm - 0.00 in Rain Light Rain
3:52 PM 46.0 °F 43.9 °F 45.0 °F 96% 30.10 in 6.0 mi South 4.6 mph - 0.01 in   Overcast
4:52 PM 46.9 °F - 46.0 °F 97% 30.09 in 8.0 mi South 3.5 mph - N/A   Overcast
5:52 PM 46.9 °F - 46.0 °F 97% 30.08 in 7.0 mi Calm Calm - N/A   Overcast
6:26 PM 46.4 °F - 46.4 °F 100% 30.09 in 6.0 mi Calm Calm - N/A   Overcast
6:52 PM 48.0 °F - 46.0 °F 93% 30.11 in 7.0 mi Calm Calm - N/A   Overcast
7:16 PM 46.4 °F - 46.4 °F 100% 30.12 in 7.0 mi Calm Calm - N/A   Overcast
7:41 PM 46.4 °F - 46.4 °F 100% 30.11 in 6.0 mi Calm Calm - N/A   Overcast
7:52 PM 46.9 °F - 46.0 °F 97% 30.12 in 7.0 mi Calm Calm - N/A   Overcast
8:10 PM 46.4 °F - 46.4 °F 100% 30.12 in 7.0 mi Calm Calm - N/A   Overcast
8:35 PM 46.4 °F - 44.6 °F 93% 30.12 in 4.0 mi Calm Calm - N/A   Overcast
8:52 PM 46.0 °F 44.8 °F 45.0 °F 96% 30.13 in 3.0 mi North 3.5 mph - N/A   Overcast
9:05 PM 46.4 °F - 44.6 °F 93% 30.13 in 4.0 mi Calm Calm - N/A   Overcast
9:52 PM 46.9 °F - 46.0 °F 97% 30.15 in 5.0 mi NNW 3.5 mph - N/A   Overcast
10:35 PM 44.6 °F - 44.6 °F 100% 30.15 in 5.0 mi Calm Calm - N/A   Overcast
10:52 PM 45.0 °F 42.6 °F 45.0 °F 100% 30.17 in 4.0 mi NNW 4.6 mph - N/A   Overcast
11:10 PM 44.6 °F 39.7 °F 44.6 °F 100% 30.17 in 1.8 mi NNW 9.2 mph - N/A   Overcast
11:16 PM 44.6 °F 40.7 °F 44.6 °F 100% 30.18 in 0.5 mi NW 6.9 mph - N/A Fog Fog
11:32 PM 44.6 °F 40.2 °F 44.6 °F 100% 30.19 in 1.0 mi NNW 8.1 mph - N/A   Overcast
11:48 PM 44.6 °F 40.7 °F 44.6 °F 100% 30.20 in 3.0 mi North 6.9 mph - N/A   Overcast
11:52 PM 44.1 °F 39.5 °F 44.1 °F 100% 30.20 in 4.0 mi North 8.1 mph - N/A   Overcast